TimeCST,TemperatureF,Dew PointF,Humidity,Sea Level PressureIn,VisibilityMPH,Wind Direction,Wind SpeedMPH,Gust SpeedMPH,PrecipitationIn,Events,Conditions,WindDirDegrees,DateUTC
12:54 AM,33.1,30.0,89,29.99,0.5,WNW,13.8,21.9,N/A,,Overcast,290,2014-02-05 06:54:00
1:01 AM,33.8,30.2,87,29.99,0.5,West,13.8,-,N/A,,Overcast,280,2014-02-05 07:01:00
1:04 AM,33.8,30.2,87,29.99,6.0,West,12.7,-,N/A,,Overcast,280,2014-02-05 07:04:00
1:35 AM,33.8,30.2,87,29.99,6.0,West,9.2,-,N/A,,Overcast,270,2014-02-05 07:35:00
1:54 AM,33.1,30.0,89,30.01,6.0,West,9.2,-,N/A,,Overcast,260,2014-02-05 07:54:00
2:17 AM,33.8,30.2,87,30.01,6.0,West,9.2,-,N/A,,Overcast,270,2014-02-05 08:17:00
2:54 AM,33.1,30.9,92,30.02,6.0,West,5.8,-,N/A,,Overcast,270,2014-02-05 08:54:00
3:54 AM,33.1,30.9,92,30.05,7.0,West,8.1,-,N/A,,Overcast,260,2014-02-05 09:54:00
4:54 AM,34.0,30.9,89,30.08,6.0,West,9.2,-,N/A,,Overcast,270,2014-02-05 10:54:00
5:54 AM,34.0,30.9,89,30.13,6.0,West,10.4,-,N/A,,Overcast,280,2014-02-05 11:54:00
6:26 AM,33.8,30.2,87,30.13,7.0,West,10.4,-,N/A,,Overcast,270,2014-02-05 12:26:00
6:54 AM,35.1,30.9,85,30.15,6.0,WNW,13.8,19.6,N/A,,Overcast,300,2014-02-05 12:54:00
7:22 AM,33.8,30.2,87,30.16,7.0,NW,10.4,-,N/A,,Overcast,310,2014-02-05 13:22:00
7:46 AM,35.6,30.2,81,30.18,8.0,WNW,10.4,-,N/A,,Overcast,300,2014-02-05 13:46:00
7:54 AM,35.1,30.9,85,30.19,9.0,NW,12.7,-,N/A,,Overcast,310,2014-02-05 13:54:00
8:42 AM,35.6,26.6,70,30.22,10.0,NW,20.7,27.6,N/A,,Mostly Cloudy,320,2014-02-05 14:42:00
8:54 AM,35.1,28.0,76,30.23,10.0,NW,18.4,28.8,N/A,,Mostly Cloudy,320,2014-02-05 14:54:00
9:03 AM,33.8,26.6,75,30.23,10.0,NNW,21.9,27.6,N/A,,Mostly Cloudy,330,2014-02-05 15:03:00
9:21 AM,33.8,24.8,70,30.25,10.0,NNW,20.7,28.8,N/A,,Overcast,330,2014-02-05 15:21:00
9:54 AM,30.9,25.0,79,30.29,10.0,NNW,18.4,25.3,N/A,,Mostly Cloudy,330,2014-02-05 15:54:00
10:54 AM,28.9,21.0,72,30.33,10.0,NW,15.0,-,N/A,,Overcast,320,2014-02-05 16:54:00
11:54 AM,28.0,19.0,69,30.35,9.0,NNW,17.3,24.2,N/A,,Overcast,340,2014-02-05 17:54:00
12:54 PM,28.0,19.9,72,30.34,8.0,NNW,12.7,20.7,N/A,,Overcast,340,2014-02-05 18:54:00
1:54 PM,28.0,19.9,72,30.35,10.0,North,13.8,-,N/A,,Overcast,350,2014-02-05 19:54:00
2:54 PM,28.0,19.0,69,30.37,10.0,North,13.8,-,N/A,,Mostly Cloudy,360,2014-02-05 20:54:00
3:54 PM,28.9,19.9,69,30.40,8.0,NNW,9.2,-,N/A,,Overcast,340,2014-02-05 21:54:00
4:54 PM,28.0,19.9,72,30.43,10.0,North,9.2,-,N/A,,Overcast,360,2014-02-05 22:54:00
5:54 PM,28.0,19.9,72,30.45,10.0,North,6.9,-,N/A,,Overcast,350,2014-02-05 23:54:00
6:54 PM,28.0,21.0,75,30.44,10.0,North,11.5,-,N/A,,Overcast,360,2014-02-06 00:54:00
7:54 PM,28.0,21.0,75,30.46,10.0,North,9.2,-,N/A,,Overcast,10,2014-02-06 01:54:00
8:54 PM,28.0,21.0,75,30.48,10.0,North,8.1,-,N/A,,Overcast,350,2014-02-06 02:54:00
9:54 PM,28.9,21.9,75,30.50,10.0,North,10.4,-,N/A,,Overcast,360,2014-02-06 03:54:00
10:54 PM,28.9,21.9,75,30.48,10.0,NNE,10.4,-,N/A,,Overcast,30,2014-02-06 04:54:00
11:54 PM,27.0,19.9,75,30.47,10.0,North,13.8,-,N/A,,Overcast,10,2014-02-06 05:54:00